When you browse on this site, cookies collect data to enhance your experience and personalize the content and advertising you see.
Visit our Privacy Policy to learn more. By continuing to use the site, you agree to this use of cookies and data.
  • Em Portugal
  • Lista de países
  • Para 7 dias
  • Temperatura da água
  • Mapa do tempo
  • Widgets de tempo
  • user-avatar
    Iniciar Sessão

    Previsão horária em Abomey

    Hoje, 15 Novembro, Sexta-feira

    Tempo Temperatura Precipitação Vento Pressão Humidade
    00:00 +22°C° 0 mm 0 m/s 737 mmHg 76%
    01:00 +22°C° 0 mm 0 m/s 737 mmHg 77%
    02:00 +22°C° 0 mm 0 m/s 736 mmHg 77%
    03:00 +22°C° 0 mm 0 m/s 736 mmHg 77%
    04:00 +21°C° 0 mm 0 m/s 736 mmHg 79%
    05:00 +21°C° 0 mm 0 m/s 737 mmHg 80%
    06:00 +21°C° 0 mm 0 m/s 737 mmHg 81%
    07:00 +23°C° 0 mm 0 m/s 737 mmHg 75%
    08:00 +25°C° 0 mm 0 m/s 738 mmHg 69%
    09:00 +27°C° 0 mm 0 m/s 738 mmHg 63%
    10:00 +29°C° 0 mm 0 m/s 738 mmHg 58%
    11:00 +30°C° 0 mm 0 m/s 737 mmHg 53%
    12:00 +32°C° 0 mm 0 m/s 737 mmHg 48%
    13:00 +32°C° 0 mm 0 m/s 736 mmHg 47%
    14:00 +32°C° 0 mm 0 m/s 736 mmHg 45%
    15:00 +32°C° 0 mm 0 m/s 735 mmHg 44%
    16:00 +30°C° 0 mm 0 m/s 735 mmHg 49%
    17:00 +28°C° 0 mm 0 m/s 735 mmHg 55%
    18:00 +27°C° 0 mm 0 m/s 736 mmHg 60%
    19:00 +28°C° 0 mm 1 m/s 736 mmHg 63%
    20:00 +27°C° 0 mm 1 m/s 737 mmHg 67%
    21:00 +27°C° 0 mm 2 m/s 738 mmHg 70%
    22:00 +26°C° 0 mm 2 m/s 737 mmHg 76%
    23:00 +26°C° 0 mm 2 m/s 737 mmHg 81%

    Amanhã, 16 Novembro, Sábado

    Tempo Temperatura Precipitação Vento Pressão Humidade
    00:00 +25°C° 0 mm 2 m/s 737 mmHg 87%
    01:00 +25°C° 0 mm 2 m/s 736 mmHg 88%
    02:00 +25°C° 0 mm 2 m/s 736 mmHg 90%
    03:00 +25°C° 0 mm 1 m/s 736 mmHg 92%
    04:00 +24°C° 0 mm 1 m/s 736 mmHg 93%
    05:00 +24°C° 0 mm 1 m/s 736 mmHg 94%
    06:00 +24°C° 0 mm 1 m/s 736 mmHg 95%
    07:00 +26°C° 0 mm 1 m/s 737 mmHg 87%
    08:00 +28°C° 0 mm 2 m/s 738 mmHg 80%
    09:00 +30°C° 0 mm 2 m/s 738 mmHg 73%
    10:00 +31°C° 0 mm 1 m/s 738 mmHg 66%
    11:00 +33°C° 0 mm 1 m/s 737 mmHg 59%
    12:00 +34°C° 0 mm 1 m/s 737 mmHg 52%
    13:00 +34°C° 0 mm 1 m/s 736 mmHg 50%
    14:00 +32°C° 0 mm 0 m/s 736 mmHg 48%
    15:00 +32°C° 0 mm 0 m/s 735 mmHg 46%
    16:00 +31°C° 0 mm 0 m/s 735 mmHg 52%
    17:00 +31°C° 0 mm 1 m/s 735 mmHg 57%
    18:00 +29°C° 0 mm 1 m/s 735 mmHg 63%
    19:00 +29°C° 0 mm 1 m/s 736 mmHg 69%
    20:00 +28°C° 0 mm 2 m/s 736 mmHg 74%
    21:00 +27°C° 0 mm 2 m/s 737 mmHg 80%
    22:00 +27°C° 0 mm 2 m/s 737 mmHg 83%
    23:00 +26°C° 0 mm 2 m/s 737 mmHg 85%

    Depois de amanhã, 17 Novembro, Domingo

    Tempo Temperatura Precipitação Vento Pressão Humidade
    00:00 +26°C° 0 mm 2 m/s 737 mmHg 88%
    01:00 +26°C° 0 mm 2 m/s 736 mmHg 89%
    02:00 +26°C° 0 mm 2 m/s 736 mmHg 90%
    03:00 +25°C° 0 mm 2 m/s 736 mmHg 92%
    04:00 +25°C° 0 mm 1 m/s 736 mmHg 93%
    05:00 +25°C° 0 mm 1 m/s 736 mmHg 93%
    06:00 +25°C° 0 mm 1 m/s 737 mmHg 94%
    07:00 +27°C° 0 mm 1 m/s 737 mmHg 87%
    08:00 +28°C° 0 mm 2 m/s 738 mmHg 79%
    09:00 +30°C° 0 mm 2 m/s 738 mmHg 72%
    10:00 +31°C° 0 mm 2 m/s 738 mmHg 66%
    11:00 +34°C° 0 mm 2 m/s 737 mmHg 61%
    12:00 +35°C° 0 mm 2 m/s 737 mmHg 55%
    13:00 +34°C° 0 mm 1 m/s 736 mmHg 52%
    14:00 +34°C° 0 mm 1 m/s 736 mmHg 50%
    15:00 +33°C° 0 mm 0 m/s 735 mmHg 48%
    16:00 +33°C° 0 mm 1 m/s 735 mmHg 56%
    17:00 +31°C° 0 mm 2 m/s 736 mmHg 65%
    18:00 +29°C° 0 mm 2 m/s 736 mmHg 74%
    19:00 +28°C° 0 mm 3 m/s 736 mmHg 77%
    20:00 +28°C° 0 mm 3 m/s 737 mmHg 81%
    21:00 +27°C° 0 mm 3 m/s 737 mmHg 84%
    22:00 +27°C° 0 mm 2 m/s 737 mmHg 86%
    23:00 +26°C° 0 mm 2 m/s 737 mmHg 87%

    18 Novembro, Segunda-feira

    Tempo Temperatura Precipitação Vento Pressão Humidade
    00:00 +26°C° 0 mm 2 m/s 737 mmHg 88%
    01:00 +26°C° 0 mm 2 m/s 737 mmHg 90%
    02:00 +26°C° 0 mm 2 m/s 736 mmHg 92%
    03:00 +25°C° 0 mm 1 m/s 736 mmHg 93%
    04:00 +25°C° 0 mm 1 m/s 736 mmHg 95%
    05:00 +25°C° 0 mm 1 m/s 737 mmHg 96%
    06:00 +25°C° 0 mm 1 m/s 737 mmHg 97%
    07:00 +27°C° 0 mm 1 m/s 737 mmHg 90%
    08:00 +28°C° 0 mm 2 m/s 738 mmHg 82%
    09:00 +30°C° 0 mm 2 m/s 738 mmHg 74%
    10:00 +32°C° 0 mm 2 m/s 738 mmHg 67%
    11:00 +33°C° 0 mm 1 m/s 737 mmHg 60%
    12:00 +35°C° 0 mm 1 m/s 737 mmHg 53%
    13:00 +35°C° 0 mm 1 m/s 736 mmHg 51%
    14:00 +35°C° 0 mm 1 m/s 736 mmHg 49%
    15:00 +35°C° 0 mm 1 m/s 736 mmHg 47%
    16:00 +34°C° 0.2 mm 2 m/s 736 mmHg 59%
    17:00 +30°C° 0.2 mm 2 m/s 736 mmHg 71%
    18:00 +28°C° 0.2 mm 2 m/s 736 mmHg 82%
    19:00 +28°C° 0 mm 3 m/s 736 mmHg 84%
    20:00 +27°C° 0 mm 3 m/s 737 mmHg 87%
    21:00 +27°C° 0 mm 3 m/s 737 mmHg 89%
    22:00 +26°C° 0 mm 3 m/s 737 mmHg 90%
    23:00 +26°C° 0 mm 2 m/s 737 mmHg 91%

    19 Novembro, Terça-feira

    Tempo Temperatura Precipitação Vento Pressão Humidade
    00:00 +26°C° 0 mm 2 m/s 737 mmHg 92%
    01:00 +26°C° 0 mm 2 m/s 737 mmHg 93%
    02:00 +25°C° 0 mm 1 m/s 737 mmHg 94%
    03:00 +25°C° 0 mm 1 m/s 736 mmHg 95%
    04:00 +25°C° 0 mm 1 m/s 737 mmHg 96%
    05:00 +25°C° 0 mm 1 m/s 737 mmHg 96%
    06:00 +25°C° 0 mm 1 m/s 737 mmHg 96%
    07:00 +27°C° 0 mm 1 m/s 738 mmHg 88%
    08:00 +28°C° 0 mm 2 m/s 738 mmHg 81%
    09:00 +30°C° 0 mm 2 m/s 739 mmHg 73%
    10:00 +31°C° 0 mm 2 m/s 738 mmHg 69%
    11:00 +32°C° 0 mm 2 m/s 738 mmHg 66%
    12:00 +32°C° 0 mm 2 m/s 737 mmHg 62%
    13:00 +34°C° 0.1 mm 2 m/s 737 mmHg 61%
    14:00 +34°C° 0.1 mm 2 m/s 736 mmHg 61%
    15:00 +34°C° 0.1 mm 2 m/s 736 mmHg 60%
    16:00 +31°C° 0 mm 2 m/s 736 mmHg 67%
    17:00 +30°C° 0 mm 2 m/s 736 mmHg 74%
    18:00 +28°C° 0 mm 2 m/s 736 mmHg 82%
    19:00 +28°C° 0 mm 2 m/s 737 mmHg 84%
    20:00 +27°C° 0 mm 2 m/s 737 mmHg 86%
    21:00 +27°C° 0 mm 2 m/s 738 mmHg 88%
    22:00 +26°C° 0 mm 2 m/s 737 mmHg 89%
    23:00 +26°C° 0 mm 2 m/s 737 mmHg 91%

    20 Novembro, Quarta-feira

    Tempo Temperatura Precipitação Vento Pressão Humidade
    00:00 +26°C° 0 mm 2 m/s 737 mmHg 92%
    01:00 +26°C° 0 mm 2 m/s 737 mmHg 93%
    02:00 +25°C° 0 mm 2 m/s 737 mmHg 94%
    03:00 +25°C° 0 mm 1 m/s 736 mmHg 95%
    04:00 +25°C° 0 mm 1 m/s 737 mmHg 96%
    05:00 +25°C° 0 mm 1 m/s 737 mmHg 96%
    06:00 +25°C° 0 mm 1 m/s 737 mmHg 97%
    07:00 +26°C° 0 mm 1 m/s 737 mmHg 90%
    08:00 +28°C° 0 mm 2 m/s 738 mmHg 82%
    09:00 +30°C° 0 mm 2 m/s 739 mmHg 75%
    10:00 +31°C° 0 mm 2 m/s 738 mmHg 71%
    11:00 +31°C° 0 mm 2 m/s 738 mmHg 68%
    12:00 +32°C° 0 mm 2 m/s 737 mmHg 64%
    13:00 +32°C° 0 mm 2 m/s 737 mmHg 63%
    14:00 +33°C° 0 mm 1 m/s 736 mmHg 61%
    15:00 +33°C° 0 mm 1 m/s 735 mmHg 60%
    16:00 +32°C° 0.1 mm 1 m/s 736 mmHg 65%
    17:00 +30°C° 0.1 mm 1 m/s 736 mmHg 71%
    18:00 +29°C° 0.1 mm 1 m/s 736 mmHg 76%
    19:00 +28°C° 0.3 mm 1 m/s 736 mmHg 81%
    20:00 +27°C° 0.3 mm 2 m/s 737 mmHg 85%
    21:00 +27°C° 0.3 mm 2 m/s 737 mmHg 90%
    22:00 +26°C° 0 mm 2 m/s 737 mmHg 91%
    23:00 +26°C° 0 mm 2 m/s 737 mmHg 91%
    Mostrar mais